LAN105 SCSE-SCEL

Flight info

Callsign LAN105
Flight time 0h 42m
Altitude 25000
Route EDRON5 EDRON UL302 SIMOK SIMOK7B
Aircraft A320/M-SDE3FGHIRWY/LB1

Departure

Time 2026-04-21 01:09
Airport La Florida Airport (SCSE)

Arrival

Time 2026-04-21 01:51
Airport Comodoro Arturo Merino Benítez International Airport (SCEL)
Time Latitude Longitude Altitude Speed Heading
2026-04-21 01:02 -29.91575 -71.20412 476 ft 0 kts 116°
2026-04-21 01:04 -29.91575 -71.20411 476 ft 1 kts 116°
2026-04-21 01:05 -29.91600 -71.20352 477 ft 12 kts 115°
2026-04-21 01:05 -29.91580 -71.20292 479 ft 9 kts 33°
2026-04-21 01:05 -29.91528 -71.20245 477 ft 11 kts 77°
2026-04-21 01:05 -29.91563 -71.20139 474 ft 16 kts 117°
2026-04-21 01:06 -29.91616 -71.20013 473 ft 18 kts 116°
2026-04-21 01:06 -29.91674 -71.19879 470 ft 20 kts 116°
2026-04-21 01:06 -29.91740 -71.19725 475 ft 22 kts 116°
2026-04-21 01:06 -29.91811 -71.19560 476 ft 23 kts 116°
2026-04-21 01:07 -29.91886 -71.19389 478 ft 24 kts 116°
2026-04-21 01:07 -29.91961 -71.19211 480 ft 25 kts 116°
2026-04-21 01:07 -29.92044 -71.19096 473 ft 13 kts 128°
2026-04-21 01:07 -29.92022 -71.19073 474 ft 2 kts 319°
2026-04-21 01:08 -29.92016 -71.19085 472 ft 2 kts 302°
2026-04-21 01:08 -29.92010 -71.19099 474 ft 4 kts 296°
2026-04-21 01:08 -29.91916 -71.19316 473 ft 69 kts 296°
2026-04-21 01:08 -29.91596 -71.20064 472 ft 136 kts 296°
2026-04-21 01:09 -29.91123 -71.21165 812 ft 161 kts 295°
2026-04-21 01:09 -29.90635 -71.22330 1500 ft 165 kts 296°
2026-04-21 01:09 -29.90092 -71.23632 1727 ft 194 kts 296°
2026-04-21 01:09 -29.89472 -71.25111 2009 ft 218 kts 296°
2026-04-21 01:10 -29.88776 -71.26782 2368 ft 243 kts 295°
2026-04-21 01:10 -29.88151 -71.28671 2924 ft 260 kts 278°
2026-04-21 01:10 -29.88296 -71.30748 3727 ft 264 kts 250°
2026-04-21 01:10 -29.89227 -71.32571 4563 ft 269 kts 225°
2026-04-21 01:11 -29.90780 -71.33773 5355 ft 274 kts 199°
2026-04-21 01:11 -29.92673 -71.34036 6153 ft 280 kts 172°
2026-04-21 01:11 -29.94574 -71.33470 6923 ft 285 kts 163°
2026-04-21 01:11 -29.96494 -71.32805 7690 ft 291 kts 163°
2026-04-21 01:12 -29.98449 -71.32127 8473 ft 296 kts 162°
2026-04-21 01:12 -30.00452 -71.31437 8926 ft 303 kts 163°
2026-04-21 01:12 -30.02480 -71.30743 9734 ft 306 kts 163°
2026-04-21 01:12 -30.04540 -71.30041 10397 ft 315 kts 163°
2026-04-21 01:13 -30.06724 -71.29300 10653 ft 339 kts 163°
2026-04-21 01:13 -30.09086 -71.28749 11079 ft 352 kts 175°
2026-04-21 01:13 -30.11548 -71.28708 11743 ft 357 kts 183°
2026-04-21 01:13 -30.14048 -71.28795 12479 ft 360 kts 184°
2026-04-21 01:14 -30.16567 -71.28873 13231 ft 364 kts 184°
2026-04-21 01:14 -30.19106 -71.28948 13961 ft 366 kts 185°
2026-04-21 01:14 -30.21630 -71.29025 14592 ft 369 kts 185°
2026-04-21 01:14 -30.24208 -71.29103 15231 ft 372 kts 185°
2026-04-21 01:15 -30.26835 -71.29184 15892 ft 375 kts 185°
2026-04-21 01:15 -30.29417 -71.29263 16532 ft 377 kts 186°
2026-04-21 01:15 -30.32052 -71.29349 17150 ft 380 kts 186°
2026-04-21 01:15 -30.34715 -71.29437 17760 ft 384 kts 186°
2026-04-21 01:16 -30.37388 -71.29522 18372 ft 386 kts 186°
2026-04-21 01:16 -30.40088 -71.29606 18919 ft 390 kts 187°
2026-04-21 01:16 -30.42806 -71.29689 19474 ft 392 kts 187°
2026-04-21 01:16 -30.45538 -71.29770 20058 ft 393 kts 187°
2026-04-21 01:17 -30.48282 -71.29852 20591 ft 396 kts 188°
2026-04-21 01:17 -30.51043 -71.29939 21088 ft 398 kts 188°
2026-04-21 01:17 -30.53842 -71.29805 21589 ft 408 kts 179°
2026-04-21 01:17 -30.56652 -71.29087 22069 ft 420 kts 168°
2026-04-21 01:18 -30.59377 -71.27744 22513 ft 432 kts 158°
2026-04-21 01:18 -30.62032 -71.26067 22963 ft 436 kts 158°
2026-04-21 01:18 -30.64707 -71.24388 23410 ft 439 kts 158°
2026-04-21 01:18 -30.67410 -71.22702 23826 ft 443 kts 159°
2026-04-21 01:19 -30.70132 -71.21009 24242 ft 445 kts 159°
2026-04-21 01:19 -30.72879 -71.19304 24636 ft 448 kts 159°
2026-04-21 01:19 -30.75636 -71.17592 24997 ft 451 kts 159°
2026-04-21 01:19 -30.78414 -71.15939 25124 ft 445 kts 165°
2026-04-21 01:20 -30.81268 -71.14838 25154 ft 421 kts 176°
2026-04-21 01:20 -30.84109 -71.14285 25152 ft 411 kts 180°
2026-04-21 01:20 -30.86934 -71.13800 25151 ft 410 kts 180°
2026-04-21 01:20 -30.89718 -71.13306 25152 ft 410 kts 180°
2026-04-21 01:21 -30.92575 -71.12783 25149 ft 410 kts 180°
2026-04-21 01:21 -30.95357 -71.12267 25161 ft 410 kts 179°
2026-04-21 01:21 -30.98171 -71.11740 25151 ft 409 kts 179°
2026-04-21 01:21 -31.00983 -71.11210 25159 ft 409 kts 179°
2026-04-21 01:22 -31.03790 -71.10683 25158 ft 409 kts 179°
2026-04-21 01:22 -31.06601 -71.10160 25157 ft 409 kts 179°
2026-04-21 01:22 -31.09409 -71.09637 25162 ft 409 kts 179°
2026-04-21 01:22 -31.12218 -71.09114 25162 ft 409 kts 179°
2026-04-21 01:23 -31.15027 -71.08592 25160 ft 408 kts 179°
2026-04-21 01:23 -31.17834 -71.08072 25158 ft 408 kts 179°
2026-04-21 01:23 -31.20640 -71.07551 25181 ft 408 kts 179°
2026-04-21 01:23 -31.23444 -71.07032 25181 ft 408 kts 179°
2026-04-21 01:24 -31.26247 -71.06515 25184 ft 407 kts 179°
2026-04-21 01:24 -31.29042 -71.05999 25182 ft 408 kts 179°
2026-04-21 01:24 -31.31842 -71.05480 25182 ft 407 kts 179°
2026-04-21 01:24 -31.34648 -71.04957 25182 ft 407 kts 178°
2026-04-21 01:25 -31.37444 -71.04433 25176 ft 407 kts 178°
2026-04-21 01:25 -31.40229 -71.03910 25178 ft 406 kts 178°
2026-04-21 01:25 -31.43021 -71.03384 25170 ft 406 kts 178°
2026-04-21 01:25 -31.45812 -71.02861 25196 ft 406 kts 178°
2026-04-21 01:26 -31.48564 -71.02343 25197 ft 406 kts 178°
2026-04-21 01:26 -31.51351 -71.01817 25197 ft 405 kts 178°
2026-04-21 01:26 -31.54134 -71.01292 25194 ft 405 kts 178°
2026-04-21 01:26 -31.56914 -71.00770 25192 ft 404 kts 178°
2026-04-21 01:27 -31.59692 -71.00252 25191 ft 404 kts 178°
2026-04-21 01:27 -31.62469 -70.99736 25187 ft 404 kts 178°
2026-04-21 01:27 -31.65242 -70.99220 25180 ft 403 kts 179°
2026-04-21 01:27 -31.68014 -70.98700 25179 ft 404 kts 178°
2026-04-21 01:28 -31.70788 -70.98175 25194 ft 404 kts 178°
2026-04-21 01:28 -31.73553 -70.97653 25193 ft 403 kts 178°
2026-04-21 01:28 -31.76325 -70.97221 25189 ft 398 kts 184°
2026-04-21 01:28 -31.79079 -70.97112 25189 ft 395 kts 185°
2026-04-21 01:29 -31.81820 -70.97014 25165 ft 394 kts 185°
2026-04-21 01:29 -31.84562 -70.96916 25180 ft 395 kts 185°
2026-04-21 01:29 -31.87311 -70.96817 25173 ft 395 kts 185°
2026-04-21 01:29 -31.90061 -70.96714 25165 ft 394 kts 185°
2026-04-21 01:30 -31.92799 -70.96613 25165 ft 395 kts 185°
2026-04-21 01:30 -31.95545 -70.96515 25159 ft 394 kts 185°
2026-04-21 01:30 -31.98286 -70.96419 25184 ft 394 kts 185°
2026-04-21 01:30 -32.01029 -70.96322 25183 ft 395 kts 184°
2026-04-21 01:31 -32.03767 -70.96223 25085 ft 391 kts 185°
2026-04-21 01:31 -32.06441 -70.96119 24845 ft 377 kts 184°
2026-04-21 01:31 -32.09042 -70.96013 24614 ft 372 kts 185°
2026-04-21 01:31 -32.11555 -70.95913 24312 ft 360 kts 185°
2026-04-21 01:32 -32.14028 -70.95818 23876 ft 354 kts 185°
2026-04-21 01:32 -32.16492 -70.95732 23389 ft 354 kts 185°
2026-04-21 01:32 -32.18953 -70.95648 22937 ft 353 kts 185°
2026-04-21 01:32 -32.21400 -70.95561 22485 ft 351 kts 185°
2026-04-21 01:33 -32.23827 -70.95474 22066 ft 348 kts 185°
2026-04-21 01:33 -32.26229 -70.95388 21639 ft 343 kts 185°
2026-04-21 01:33 -32.28596 -70.95500 21230 ft 337 kts 199°
2026-04-21 01:33 -32.30705 -70.96539 20830 ft 324 kts 221°
2026-04-21 01:34 -32.32254 -70.98393 20446 ft 315 kts 238°
2026-04-21 01:34 -32.33505 -71.00517 20044 ft 314 kts 239°
2026-04-21 01:34 -32.34719 -71.02656 19681 ft 313 kts 240°
2026-04-21 01:34 -32.35927 -71.04791 19317 ft 312 kts 240°
2026-04-21 01:35 -32.37131 -71.06921 18972 ft 311 kts 240°
2026-04-21 01:35 -32.38337 -71.09037 18627 ft 311 kts 237°
2026-04-21 01:35 -32.39931 -71.10775 18242 ft 318 kts 214°
2026-04-21 01:35 -32.42048 -71.11629 17848 ft 329 kts 191°
2026-04-21 01:36 -32.44361 -71.11423 17451 ft 340 kts 168°
2026-04-21 01:36 -32.46493 -71.10154 17058 ft 350 kts 144°
2026-04-21 01:36 -32.48168 -71.08049 16676 ft 354 kts 127°
2026-04-21 01:36 -32.49365 -71.05513 16300 ft 350 kts 116°
2026-04-21 01:37 -32.50348 -71.02964 15902 ft 339 kts 115°
2026-04-21 01:37 -32.51304 -71.00434 15511 ft 334 kts 115°
2026-04-21 01:37 -32.52324 -70.97983 15157 ft 330 kts 126°
2026-04-21 01:37 -32.53858 -70.96014 15015 ft 322 kts 147°
2026-04-21 01:38 -32.55815 -70.94793 15015 ft 316 kts 167°
2026-04-21 01:38 -32.57949 -70.94315 15017 ft 312 kts 177°
2026-04-21 01:38 -32.60104 -70.94123 15017 ft 310 kts 184°
2026-04-21 01:38 -32.62262 -70.94059 14940 ft 311 kts 183°
2026-04-21 01:39 -32.64400 -70.93985 14780 ft 303 kts 183°
2026-04-21 01:39 -32.66490 -70.93908 14480 ft 301 kts 183°
2026-04-21 01:39 -32.68569 -70.93831 14104 ft 296 kts 182°
2026-04-21 01:39 -32.70625 -70.93752 13915 ft 294 kts 182°
2026-04-21 01:40 -32.72673 -70.93675 13785 ft 294 kts 182°
2026-04-21 01:40 -32.74723 -70.93598 13670 ft 294 kts 182°
2026-04-21 01:40 -32.76755 -70.93267 13387 ft 300 kts 172°
2026-04-21 01:40 -32.78808 -70.92731 13004 ft 301 kts 171°
2026-04-21 01:41 -32.80803 -70.92190 12819 ft 296 kts 171°
2026-04-21 01:41 -32.82794 -70.91646 12313 ft 294 kts 170°
2026-04-21 01:41 -32.84793 -70.91102 11687 ft 295 kts 170°
2026-04-21 01:41 -32.86786 -70.90560 11204 ft 292 kts 169°
2026-04-21 01:42 -32.88784 -70.90018 10794 ft 297 kts 169°
2026-04-21 01:42 -32.90785 -70.89481 10466 ft 296 kts 169°
2026-04-21 01:42 -32.92813 -70.89117 10217 ft 291 kts 180°
2026-04-21 01:42 -32.94825 -70.89018 9698 ft 288 kts 180°
2026-04-21 01:43 -32.96826 -70.88916 9082 ft 287 kts 179°
2026-04-21 01:43 -32.98814 -70.88812 8515 ft 284 kts 179°
2026-04-21 01:43 -33.00791 -70.88707 8051 ft 285 kts 179°
2026-04-21 01:43 -33.02755 -70.88604 7671 ft 281 kts 179°
2026-04-21 01:44 -33.04697 -70.88502 7328 ft 276 kts 178°
2026-04-21 01:44 -33.06575 -70.88402 7236 ft 264 kts 178°
2026-04-21 01:44 -33.08348 -70.88290 7124 ft 248 kts 172°
2026-04-21 01:44 -33.09963 -70.87765 6994 ft 237 kts 154°
2026-04-21 01:45 -33.11372 -70.86758 6582 ft 237 kts 143°
2026-04-21 01:45 -33.12723 -70.85645 6172 ft 235 kts 143°
2026-04-21 01:45 -33.14062 -70.84545 5788 ft 233 kts 143°
2026-04-21 01:45 -33.15419 -70.83513 5418 ft 230 kts 154°
2026-04-21 01:46 -33.16937 -70.82958 5064 ft 227 kts 167°
2026-04-21 01:46 -33.18446 -70.82582 4971 ft 216 kts 167°
2026-04-21 01:46 -33.19841 -70.82231 4921 ft 195 kts 167°
2026-04-21 01:46 -33.21140 -70.81902 4677 ft 189 kts 167°
2026-04-21 01:47 -33.22419 -70.81578 4406 ft 186 kts 167°
2026-04-21 01:47 -33.23651 -70.81266 4193 ft 174 kts 167°
2026-04-21 01:47 -33.24800 -70.81026 3957 ft 164 kts 176°
2026-04-21 01:47 -33.25923 -70.80973 3751 ft 159 kts 176°
2026-04-21 01:48 -33.27024 -70.80918 3532 ft 156 kts 176°
2026-04-21 01:48 -33.28107 -70.80864 3332 ft 155 kts 175°
2026-04-21 01:48 -33.29180 -70.80808 3135 ft 154 kts 176°
2026-04-21 01:48 -33.30247 -70.80749 2918 ft 153 kts 176°
2026-04-21 01:49 -33.31313 -70.80690 2713 ft 153 kts 176°
2026-04-21 01:49 -33.32372 -70.80631 2510 ft 152 kts 176°
2026-04-21 01:49 -33.33427 -70.80573 2312 ft 152 kts 176°
2026-04-21 01:49 -33.34479 -70.80516 2117 ft 151 kts 176°
2026-04-21 01:50 -33.35530 -70.80465 1912 ft 151 kts 176°
2026-04-21 01:50 -33.36576 -70.80409 1730 ft 150 kts 176°
2026-04-21 01:50 -33.37619 -70.80351 1579 ft 148 kts 177°
2026-04-21 01:50 -33.38513 -70.80303 1573 ft 105 kts 177°
2026-04-21 01:51 -33.39070 -70.80274 1574 ft 56 kts 177°
2026-04-21 01:51 -33.39348 -70.80185 1571 ft 32 kts 149°
2026-04-21 01:51 -33.39464 -70.80099 1567 ft 8 kts 148°
2026-04-21 01:51 -33.39468 -70.80096 1567 ft 0 kts 148°
2026-04-21 01:52 -33.39470 -70.80095 1567 ft 1 kts 148°
2026-04-21 01:52 -33.39527 -70.79991 1565 ft 18 kts 101°
2026-04-21 01:52 -33.39527 -70.79828 1565 ft 21 kts 88°
2026-04-21 01:53 -33.39519 -70.79650 1565 ft 22 kts 87°
2026-04-21 01:53 -33.39512 -70.79461 1564 ft 23 kts 87°
2026-04-21 01:53 -33.39504 -70.79289 1564 ft 18 kts 87°
2026-04-21 01:53 -33.39528 -70.79220 1564 ft 5 kts 194°
2026-04-21 01:54 -33.39555 -70.79220 1564 ft 4 kts 179°
2026-04-21 01:54 -33.39577 -70.79219 1564 ft 3 kts 177°
2026-04-21 01:54 -33.39589 -70.79219 1564 ft 0 kts 177°